Location: Peterborough
(44.3091°N, 78.3197°W)
Time: 06:40:54
(UTC-04:00)

Vanguard 3 - Pass Details

Date: 02 March 2024
Orbit: 510 x 3234 km, 33.3° (Epoch: 24 April)

Event Time Altitude Azimuth Distance (km) Brightness Sun altitude
Rises 21:24:10 0° 259° (W) 6,674 12.4 -35.6°
Reaches altitude 10° 21:28:22 10° 256° (WSW) 5,872 11.9 -36.2°
Maximum altitude 21:47:05 59° 184° (S) 3,533 10.0 -39.0°
Enters shadow 21:49:09 57° 164° (SSE) 3,540 9.9 -39.3°
